DW7984 Weather Reports


Display with metric or nautical units.
time (UTC)temp
F
wind
direction
speed
MPH
gust
MPH
rain 1hr
in
rain 24hr
in
rain mn
in
humidity
%
barometer
mb
20260504120303 70 214 5.0 13.0 0.00 0.00 0.00 72 1046.3
20260504120203 70 225 5.0 13.0 0.00 0.00 0.00 71 1046.2
20260504120112 70 155 6.0 13.0 0.00 0.00 0.00 71 1046.3
20260504110653 69 199 4.0 12.0 0.00 0.00 0.00 72 1046.7
20260504110557 69 199 4.0 12.0 0.00 0.00 0.00 72 1046.6
20260504110458 69 201 4.0 12.0 0.00 0.00 0.00 72 1046.7
20260504110358 69 183 4.0 12.0 0.00 0.00 0.00 71 1046.6
20260504110255 69 185 4.0 12.0 0.00 0.00 0.00 71 1046.6
20260504110156 69 168 4.0 12.0 0.00 0.00 0.00 71 1046.7
20260504110103 69 100 3.0 9.0 0.00 0.00 0.00 70 1046.7
20260504100406 68 133 5.0 10.0 0.00 0.00 0.00 68 1046.9
20260504100357 68 131 5.0 10.0 0.00 0.00 0.00 69 1046.9
20260504100346 68 98 5.0 10.0 0.00 0.00 0.00 68 1046.9
20260504081939 65 39 2.0 4.0 0.00 0.00 0.00 73 1047.5
20260504081839 65 39 2.0 4.0 0.00 0.00 0.00 73 1047.5
20260504081739 65 39 2.0 4.0 0.00 0.00 0.00 72 1047.5
20260504081632 65 39 1.0 4.0 0.00 0.00 0.00 72 1047.6
20260504081537 65 39 1.0 4.0 0.00 0.00 0.00 72 1047.5
20260504081437 65 39 1.0 4.0 0.00 0.00 0.00 71 1047.5
20260504081426 65 39 1.0 4.0 0.00 0.00 0.00 71 1047.6
20260504081419 65 38 1.0 3.0 0.00 0.00 0.00 71 1047.5
20260504081348 65 38 1.0 3.0 0.00 0.00 0.00 71 1047.6
20260504081035 66 38 1.0 3.0 0.00 0.00 0.00 72 1047.6
20260504080937 66 38 1.0 2.0 0.00 0.00 0.00 72 1047.6
20260504080836 66 38 1.0 2.0 0.00 0.00 0.00 72 1047.6
20260504080736 66 38 1.0 2.0 0.00 0.00 0.00 72 1047.6
20260504080635 66 38 1.0 2.0 0.00 0.00 0.00 73 1047.6
20260504080543 66 38 1.0 2.0 0.00 0.00 0.00 73 1047.6
20260504080435 66 38 1.0 4.0 0.00 0.00 0.00 73 1047.6
20260504080335 66 38 1.0 4.0 0.00 0.00 0.00 73 1047.6
20260504080235 65 38 1.0 4.0 0.00 0.00 0.00 73 1047.6
20260504080156 65 38 2.0 4.0 0.00 0.00 0.00 73 1047.6
20260504080143 65 38 2.0 4.0 0.00 0.00 0.00 73 1047.6
20260504080132 65 38 2.0 4.0 0.00 0.00 0.00 73 1047.6
20260504080122 65 38 2.0 4.0 0.00 0.00 0.00 72 1047.6
20260504070151 63 48 1.0 3.0 0.00 0.00 0.00 80 1047.9
20260504070138 63 48 0.0 3.0 0.00 0.00 0.00 80 1047.9
20260504070126 63 48 0.0 2.0 0.00 0.00 0.00 80 1047.9
20260504050423 58 48 0.0 1.0 0.00 0.00 0.00 90 1047.8
20260504050140 58 48 0.0 0.0 0.00 0.00 0.00 90 1047.8
20260504045910 58 48 0.0 0.0 0.00 0.00 0.00 90 1047.8
20260504045901 58 49 0.0 0.0 0.00 0.00 0.00 90 1047.8
20260504045852 58 48 0.0 1.0 0.00 0.00 0.00 90 1047.9
20260504045612 58 48 0.0 1.0 0.00 0.00 0.00 90 1047.9
20260504045118 58 48 0.0 1.0 0.00 0.00 0.00 90 1047.9
20260504045104 58 48 0.0 1.0 0.00 0.00 0.00 90 1047.9
20260504045052 58 49 0.0 1.0 0.00 0.00 0.00 90 1047.9
20260504045041 58 73 0.0 1.0 0.00 0.00 0.00 90 1047.9
20260504045033 58 72 0.0 1.0 0.00 0.00 0.00 90 1047.9
20260504044455 58 73 0.0 1.0 0.00 0.00 0.00 90 1047.9
20260504044425 58 73 0.0 2.0 0.00 0.00 0.00 90 1047.9
20260504044418 58 73 0.0 2.0 0.00 0.00 0.00 90 1047.9
20260504044130 58 73 0.0 2.0 0.00 0.00 0.00 90 1047.9
20260504044123 58 71 0.0 2.0 0.00 0.00 0.00 90 1047.9
20260504044111 58 73 0.0 2.0 0.00 0.00 0.00 90 1047.9
20260504043750 58 73 0.0 2.0 0.00 0.00 0.00 90 1048.0
20260504043625 58 73 0.0 2.0 0.00 0.00 0.00 90 1047.9
20260504043621 58 72 0.0 2.0 0.00 0.00 0.00 90 1047.9
20260504043610 58 73 0.0 2.0 0.00 0.00 0.00 90 1047.9
20260504043240 58 73 0.0 2.0 0.00 0.00 0.00 90 1047.9
20260504043203 58 73 0.0 2.0 0.00 0.00 0.00 90 1048.0
20260504043159 58 73 0.0 1.0 0.00 0.00 0.00 90 1048.0
20260504042832 58 73 0.0 2.0 0.00 0.00 0.00 90 1048.0
20260504042732 58 73 0.0 2.0 0.00 0.00 0.00 90 1048.0
20260504042719 58 72 0.0 2.0 0.00 0.00 0.00 90 1048.0
20260504042708 58 73 0.0 2.0 0.00 0.00 0.00 90 1048.0
20260504042701 58 73 0.0 2.0 0.00 0.00 0.00 90 1048.0
20260504042653 58 73 0.0 2.0 0.00 0.00 0.00 90 1048.0
20260504042645 58 73 0.0 2.0 0.00 0.00 0.00 90 1048.0
20260504042158 58 73 1.0 2.0 0.00 0.00 0.00 90 1048.0
20260504042147 58 73 0.0 2.0 0.00 0.00 0.00 90 1048.1
20260504041900 58 73 0.0 2.0 0.00 0.00 0.00 90 1048.0
20260504041850 58 73 0.0 2.0 0.00 0.00 0.00 90 1048.1
20260504041834 58 73 0.0 2.0 0.00 0.00 0.00 90 1048.1
20260504041517 58 73 0.0 2.0 0.00 0.00 0.00 90 1048.1
20260504041415 58 73 0.0 2.0 0.00 0.00 0.00 90 1048.1
20260504041315 58 73 0.0 2.0 0.00 0.00 0.00 90 1048.1
20260504041227 58 73 0.0 2.0 0.00 0.00 0.00 90 1048.1
20260504041126 58 73 0.0 2.0 0.00 0.00 0.00 90 1048.1
20260504041006 58 73 0.0 2.0 0.00 0.00 0.00 90 1048.2
20260504040904 58 73 0.0 2.0 0.00 0.00 0.00 90 1048.2
20260504040804 58 73 0.0 2.0 0.00 0.00 0.00 90 1048.2
20260504040703 58 73 1.0 2.0 0.00 0.00 0.00 90 1048.2
20260504040603 58 73 1.0 2.0 0.00 0.00 0.00 90 1048.2
20260504040503 58 73 1.0 2.0 0.00 0.00 0.00 90 1048.2
20260504040402 58 73 1.0 2.0 0.00 0.00 0.00 90 1048.2
20260504040349 58 73 1.0 2.0 0.00 0.00 0.00 90 1048.2
20260504040331 58 73 1.0 2.0 0.00 0.00 0.00 90 1048.2
20260504040308 58 73 1.0 2.0 0.00 0.00 0.00 90 1048.2
20260504040043 58 73 1.0 2.0 0.00 0.00 0.00 90 1048.2
20260504040028 58 73 1.0 2.0 0.00 0.00 0.00 90 1048.2
20260504035759 58 73 1.0 2.0 0.00 0.00 0.00 90 1048.2
20260504035747 58 73 1.0 2.0 0.00 0.00 0.00 90 1048.2
20260504035518 58 73 1.0 2.0 0.00 0.00 0.00 90 1048.2
20260504035200 58 73 1.0 2.0 0.00 0.00 0.00 90 1048.2
20260504035110 58 73 1.0 2.0 0.00 0.00 0.00 90 1048.2
20260504035056 58 73 1.0 3.0 0.00 0.00 0.00 90 1048.2
20260504035027 58 73 1.0 3.0 0.00 0.00 0.00 90 1048.2
20260504035020 58 73 1.0 3.0 0.00 0.00 0.00 90 1048.2
20260504034651 58 73 1.0 3.0 0.00 0.00 0.00 90 1048.2
20260504034605 58 73 1.0 3.0 0.00 0.00 0.00 90 1048.2
20260504034550 58 73 1.0 3.0 0.00 0.00 0.00 90 1048.2
20260504034450 58 73 1.0 3.0 0.00 0.00 0.00 90 1048.2
20260504034351 58 73 1.0 3.0 0.00 0.00 0.00 90 1048.2
20260504034247 58 73 2.0 3.0 0.00 0.00 0.00 90 1048.2
20260504034222 58 73 2.0 3.0 0.00 0.00 0.00 90 1048.2
20260504034213 58 73 1.0 3.0 0.00 0.00 0.00 90 1048.2
20260504034209 58 73 1.0 3.0 0.00 0.00 0.00 90 1048.2
20260504033846 58 73 1.0 3.0 0.00 0.00 0.00 90 1048.1
20260504033741 58 73 1.0 3.0 0.00 0.00 0.00 90 1048.2
20260504033723 58 73 1.0 3.0 0.00 0.00 0.00 90 1048.2
20260504033713 58 72 1.0 3.0 0.00 0.00 0.00 90 1048.2
20260504033705 58 73 1.0 3.0 0.00 0.00 0.00 90 1048.2
20260504033338 58 73 1.0 3.0 0.00 0.00 0.00 90 1048.1
20260504033233 58 73 1.0 2.0 0.00 0.00 0.00 90 1048.1
20260504033104 58 73 1.0 2.0 0.00 0.00 0.00 90 1048.1
20260504033032 58 73 1.0 2.0 0.00 0.00 0.00 90 1048.1
20260504032931 58 73 1.0 2.0 0.00 0.00 0.00 90 1048.1
20260504032829 58 73 1.0 2.0 0.00 0.00 0.00 90 1048.1
20260504032727 58 73 1.0 2.0 0.00 0.00 0.00 90 1048.1
20260504032604 58 73 1.0 2.0 0.00 0.00 0.00 90 1048.1
20260504032527 58 73 1.0 2.0 0.00 0.00 0.00 90 1048.1
20260504032425 58 73 1.0 2.0 0.00 0.00 0.00 90 1048.1
20260504032340 58 73 1.0 2.0 0.00 0.00 0.00 90 1048.1
20260504032332 58 73 1.0 2.0 0.00 0.00 0.00 90 1048.1
20260504032308 58 73 1.0 2.0 0.00 0.00 0.00 90 1048.1
20260504032303 58 72 1.0 2.0 0.00 0.00 0.00 90 1048.1
20260504032250 58 73 0.0 2.0 0.00 0.00 0.00 90 1048.2
20260504032245 58 73 0.0 2.0 0.00 0.00 0.00 90 1048.2
20260504032005 58 73 0.0 2.0 0.00 0.00 0.00 90 1048.1
20260504031207 58 73 0.0 0.0 0.00 0.00 0.00 90 1048.1
20260504031137 58 73 0.0 0.0 0.00 0.00 0.00 90 1048.1
20260504031128 58 73 0.0 0.0 0.00 0.00 0.00 90 1048.1
20260504030804 58 73 0.0 1.0 0.00 0.00 0.00 90 1048.1
20260504030700 58 73 0.0 1.0 0.00 0.00 0.00 90 1048.1
20260504030607 58 73 0.0 1.0 0.00 0.00 0.00 90 1048.1
20260504030558 58 73 0.0 1.0 0.00 0.00 0.00 90 1048.1
20260504030458 58 73 0.0 1.0 0.00 0.00 0.00 90 1048.1
20260504030357 58 73 0.0 2.0 0.00 0.00 0.00 90 1048.0
20260504030255 58 73 0.0 2.0 0.00 0.00 0.00 90 1048.1
20260504030150 58 73 0.0 2.0 0.00 0.00 0.00 90 1048.1
20260504030111 58 73 1.0 2.0 0.00 0.00 0.00 90 1048.1
20260504030048 58 73 1.0 2.0 0.00 0.00 0.00 90 1048.1
20260504025948 58 73 1.0 2.0 0.00 0.00 0.00 90 1048.1
20260504025846 58 73 1.0 2.0 0.00 0.00 0.00 90 1048.1
20260504025744 58 73 1.0 2.0 0.00 0.00 0.00 90 1048.1
20260504025653 58 72 1.0 2.0 0.00 0.00 0.00 90 1048.1
20260504025644 58 73 1.0 2.0 0.00 0.00 0.00 90 1048.1
20260504025640 58 73 0.0 2.0 0.00 0.00 0.00 90 1048.0
20260504025623 58 73 0.0 2.0 0.00 0.00 0.00 90 1048.1
20260504025615 58 73 0.0 2.0 0.00 0.00 0.00 90 1048.1
20260504025101 58 73 0.0 1.0 0.00 0.00 0.00 90 1048.1
20260504025033 58 73 0.0 1.0 0.00 0.00 0.00 90 1048.1
20260504024931 58 75 0.0 1.0 0.00 0.00 0.00 90 1048.1
20260504024831 58 73 0.0 2.0 0.00 0.00 0.00 90 1048.1
20260504024731 58 73 0.0 2.0 0.00 0.00 0.00 89 1048.1
20260504024602 58 73 0.0 2.0 0.00 0.00 0.00 89 1048.1
20260504024524 58 73 1.0 2.0 0.00 0.00 0.00 89 1048.1
20260504024424 58 73 1.0 2.0 0.00 0.00 0.00 89 1048.1
20260504024322 58 73 1.0 2.0 0.00 0.00 0.00 89 1048.1
20260504024219 58 73 1.0 2.0 0.00 0.00 0.00 89 1048.1
20260504024116 58 73 1.0 2.0 0.00 0.00 0.00 89 1048.1
20260504024101 58 72 1.0 2.0 0.00 0.00 0.00 89 1048.1
20260504024016 58 73 1.0 2.0 0.00 0.00 0.00 89 1048.1
20260504023916 58 73 1.0 2.0 0.00 0.00 0.00 89 1048.2
20260504023816 58 73 1.0 2.0 0.00 0.00 0.00 89 1048.2
20260504023714 58 73 0.0 2.0 0.00 0.00 0.00 89 1048.2
20260504023602 58 73 0.0 2.0 0.00 0.00 0.00 89 1048.2
20260504023512 58 73 0.0 2.0 0.00 0.00 0.00 89 1048.2
20260504023447 58 74 0.0 2.0 0.00 0.00 0.00 89 1048.2
20260504023440 58 73 0.0 2.0 0.00 0.00 0.00 89 1048.1
20260504023110 58 75 0.0 0.0 0.00 0.00 0.00 89 1048.1
20260504023102 58 73 0.0 0.0 0.00 0.00 0.00 89 1048.1
20260504023010 58 73 0.0 0.0 0.00 0.00 0.00 89 1048.1
20260504022908 58 73 0.0 0.0 0.00 0.00 0.00 89 1048.1
20260504022838 58 73 0.0 0.0 0.00 0.00 0.00 89 1048.1
20260504022831 58 73 0.0 0.0 0.00 0.00 0.00 89 1048.1
20260504022603 58 73 0.0 0.0 0.00 0.00 0.00 89 1048.1
20260504022506 58 73 0.0 0.0 0.00 0.00 0.00 89 1048.1
20260504022402 58 73 0.0 0.0 0.00 0.00 0.00 89 1048.1
20260504022339 58 73 0.0 0.0 0.00 0.00 0.00 89 1048.1
20260504022329 58 73 0.0 0.0 0.00 0.00 0.00 89 1048.1
20260504022101 58 73 0.0 0.0 0.00 0.00 0.00 89 1048.1
20260504022005 58 73 0.0 0.0 0.00 0.00 0.00 89 1048.1
20260504021901 58 73 0.0 1.0 0.00 0.00 0.00 89 1048.1
20260504021800 58 73 0.0 1.0 0.00 0.00 0.00 89 1048.1
20260504021700 58 73 0.0 1.0 0.00 0.00 0.00 89 1048.1
20260504021610 58 73 0.0 1.0 0.00 0.00 0.00 89 1048.1
20260504021600 58 73 0.0 1.0 0.00 0.00 0.00 89 1048.1
20260504021528 58 73 0.0 1.0 0.00 0.00 0.00 89 1048.1
20260504021519 58 73 0.0 1.0 0.00 0.00 0.00 89 1048.2
20260504021509 58 73 0.0 1.0 0.00 0.00 0.00 89 1048.1
20260504021450 58 73 0.0 1.0 0.00 0.00 0.00 89 1048.1
20260504020854 58 73 0.0 0.0 0.00 0.00 0.00 89 1048.2
20260504020752 58 73 0.0 0.0 0.00 0.00 0.00 89 1048.2
20260504020652 58 73 0.0 0.0 0.00 0.00 0.00 89 1048.2
20260504020603 58 73 0.0 0.0 0.00 0.00 0.00 89 1048.2
20260504020550 58 73 0.0 0.0 0.00 0.00 0.00 89 1048.2
20260504020448 58 73 0.0 0.0 0.00 0.00 0.00 89 1048.2
20260504020344 58 73 0.0 0.0 0.00 0.00 0.00 89 1048.2
20260504020242 58 73 0.0 0.0 0.00 0.00 0.00 89 1048.2
20260504020140 58 73 0.0 0.0 0.00 0.00 0.00 89 1048.2
20260504020104 58 73 0.0 0.0 0.00 0.00 0.00 89 1048.2
20260504020040 58 73 0.0 0.0 0.00 0.00 0.00 90 1048.3
20260504015938 58 72 0.0 0.0 0.00 0.00 0.00 90 1048.3
20260504015834 58 73 0.0 1.0 0.00 0.00 0.00 90 1048.3
20260504015751 58 73 0.0 1.0 0.00 0.00 0.00 90 1048.3
20260504015735 58 73 0.0 1.0 0.00 0.00 0.00 90 1048.2
20260504015724 58 73 0.0 1.0 0.00 0.00 0.00 90 1048.3
20260504015712 58 73 0.0 1.0 0.00 0.00 0.00 89 1048.2
20260504015130 58 73 0.0 1.0 0.00 0.00 0.00 89 1048.3
20260504015104 58 72 0.0 1.0 0.00 0.00 0.00 89 1048.3
20260504015028 58 73 0.0 1.0 0.00 0.00 0.00 89 1048.3
20260504014926 58 73 0.0 1.0 0.00 0.00 0.00 89 1048.3
20260504014822 58 73 0.0 1.0 0.00 0.00 0.00 89 1048.3
20260504014814 58 73 0.0 1.0 0.00 0.00 0.00 89 1048.3
20260504014755 58 73 0.0 1.0 0.00 0.00 0.00 89 1048.3
20260504014743 58 73 0.0 1.0 0.00 0.00 0.00 89 1048.3
20260504014506 58 73 0.0 2.0 0.00 0.00 0.00 89 1048.3
20260504014456 58 73 0.0 2.0 0.00 0.00 0.00 90 1048.4
20260504014448 58 73 0.0 2.0 0.00 0.00 0.00 90 1048.4
20260504013910 58 73 0.0 2.0 0.00 0.00 0.00 90 1048.5
20260504013822 58 73 0.0 2.0 0.00 0.00 0.00 90 1048.5
20260504013814 58 73 1.0 2.0 0.00 0.00 0.00 90 1048.5
20260504013756 58 73 1.0 2.0 0.00 0.00 0.00 90 1048.5
20260504013525 58 73 1.0 2.0 0.00 0.00 0.00 90 1048.5
20260504013202 58 73 1.0 4.0 0.00 0.00 0.00 90 1048.5
20260504013101 58 73 1.0 4.0 0.00 0.00 0.00 90 1048.5
20260504013013 58 73 1.0 4.0 0.00 0.00 0.00 90 1048.5
20260504012901 58 73 1.0 4.0 0.00 0.00 0.00 90 1048.5
20260504012802 58 73 1.0 4.0 0.00 0.00 0.00 90 1048.5
20260504012701 58 73 1.0 4.0 0.00 0.00 0.00 90 1048.5
20260504012639 58 73 1.0 4.0 0.00 0.00 0.00 90 1048.5
20260504012629 58 73 1.0 4.0 0.00 0.00 0.00 90 1048.5
20260504012615 58 73 1.0 4.0 0.00 0.00 0.00 90 1048.5
20260504012346 58 75 1.0 3.0 0.00 0.00 0.00 90 1048.5
20260504012326 58 75 1.0 3.0 0.00 0.00 0.00 90 1048.5
20260504012053 58 75 1.0 3.0 0.00 0.00 0.00 90 1048.5
20260504012047 58 75 1.0 3.0 0.00 0.00 0.00 90 1048.5
20260504012038 58 75 1.0 3.0 0.00 0.00 0.00 90 1048.5
20260504011458 58 75 0.0 2.0 0.00 0.00 0.00 90 1048.5
20260504011356 58 75 0.0 2.0 0.00 0.00 0.00 90 1048.6
20260504011335 58 75 0.0 2.0 0.00 0.00 0.00 90 1048.6
20260504011315 58 75 0.0 1.0 0.00 0.00 0.00 90 1048.6
20260504010956 58 75 0.0 1.0 0.00 0.00 0.00 90 1048.6
20260504010855 58 75 0.0 1.0 0.00 0.00 0.00 90 1048.5
20260504010754 58 75 1.0 2.0 0.00 0.00 0.00 90 1048.5
20260504010654 58 75 1.0 2.0 0.00 0.00 0.00 90 1048.5
20260504010602 58 75 1.0 2.0 0.00 0.00 0.00 90 1048.6
20260504010552 58 75 1.0 2.0 0.00 0.00 0.00 90 1048.6
20260504010452 58 75 1.0 2.0 0.00 0.00 0.00 90 1048.6
20260504010352 58 75 1.0 2.0 0.00 0.00 0.00 90 1048.7
20260504010312 58 75 1.0 2.0 0.00 0.00 0.00 90 1048.7
20260504010305 58 75 1.0 2.0 0.00 0.00 0.00 90 1048.7
20260504010256 58 75 0.0 2.0 0.00 0.00 0.00 90 1048.8
20260504010251 58 75 0.0 2.0 0.00 0.00 0.00 90 1048.8
20260504010232 58 75 0.0 2.0 0.00 0.00 0.00 90 1048.7
20260504010223 58 75 0.0 2.0 0.00 0.00 0.00 90 1048.8
20260504010218 58 75 0.0 2.0 0.00 0.00 0.00 90 1048.8
20260504010210 58 75 0.0 2.0 0.00 0.00 0.00 90 1048.8
20260504005948 58 75 0.0 2.0 0.00 0.00 0.00 90 1048.8
20260504005702 58 75 0.0 2.0 0.00 0.00 0.00 90 1048.8
20260504005422 58 75 0.0 2.0 0.00 0.00 0.00 90 1049.0
20260504005417 58 75 0.0 2.0 0.00 0.00 0.00 90 1049.0
20260504005138 58 75 0.0 1.0 0.00 0.00 0.00 90 1049.0
20260504004902 58 75 0.0 2.0 0.00 0.00 0.00 90 1049.0
20260504004857 58 75 0.0 2.0 0.00 0.00 0.00 90 1049.0
20260504004839 58 75 0.0 2.0 0.00 0.00 0.00 90 1049.0
20260504004615 58 75 0.0 2.0 0.00 0.00 0.00 90 1048.8
20260504004343 58 75 0.0 2.0 0.00 0.00 0.00 90 1048.8
20260504004338 58 75 1.0 2.0 0.00 0.00 0.00 90 1048.8
20260504004108 58 75 0.0 2.0 0.00 0.00 0.00 90 1049.0
20260504003601 58 75 0.0 2.0 0.00 0.00 0.00 90 1049.0
20260504003529 58 75 1.0 2.0 0.00 0.00 0.00 90 1049.0
20260504003429 58 75 1.0 2.0 0.00 0.00 0.00 90 1049.0
20260504003328 58 75 1.0 2.0 0.00 0.00 0.00 90 1049.0
20260504003228 58 76 1.0 3.0 0.00 0.00 0.00 90 1048.8
20260504003128 58 75 1.0 3.0 0.00 0.00 0.00 90 1049.0
20260504003105 57 75 1.0 3.0 0.00 0.00 0.00 90 1049.0
20260504003026 58 75 1.0 3.0 0.00 0.00 0.00 90 1049.0
20260504002926 57 75 1.0 3.0 0.00 0.00 0.00 90 1049.0
20260504002826 57 75 1.0 3.0 0.00 0.00 0.00 90 1049.1
20260504002726 57 75 1.0 3.0 0.00 0.00 0.00 90 1049.1
20260504002627 57 75 1.0 3.0 0.00 0.00 0.00 90 1049.1
20260504002621 57 75 1.0 3.0 0.00 0.00 0.00 90 1049.1
20260504002603 57 75 1.0 3.0 0.00 0.00 0.00 90 1049.1
20260504002555 57 75 1.0 3.0 0.00 0.00 0.00 90 1049.1
20260504002320 57 75 0.0 2.0 0.00 0.00 0.00 90 1049.1
20260504002048 57 75 1.0 2.0 0.00 0.00 0.00 90 1049.1
20260504002037 57 75 1.0 2.0 0.00 0.00 0.00 90 1049.1
20260504001714 57 75 1.0 2.0 0.00 0.00 0.00 90 1049.1
20260504001622 57 75 1.0 2.0 0.00 0.00 0.00 90 1049.0
20260504001616 57 75 1.0 2.0 0.00 0.00 0.00 90 1049.0
20260504001558 57 75 1.0 3.0 0.00 0.00 0.00 90 1049.0
20260504001550 57 75 1.0 3.0 0.00 0.00 0.00 90 1049.0
20260504001318 57 75 1.0 3.0 0.00 0.00 0.00 90 1049.1
20260504001006 57 75 1.0 3.0 0.00 0.00 0.00 90 1049.2
20260504000901 57 75 1.0 3.0 0.00 0.00 0.00 90 1049.2
20260504000801 57 75 1.0 3.0 0.00 0.00 0.00 90 1049.2
20260504000637 57 75 1.0 3.0 0.00 0.00 0.00 90 1049.2
20260504000633 57 75 1.0 3.0 0.00 0.00 0.00 90 1049.2
20260504000618 57 75 1.0 3.0 0.00 0.00 0.00 90 1049.2
20260504000252 58 75 1.0 3.0 0.00 0.00 0.00 90 1049.1
20260504000231 58 75 1.0 3.0 0.00 0.00 0.00 90 1049.1
20260504000222 57 75 1.0 3.0 0.00 0.00 0.00 90 1049.1
20260504000213 58 75 1.0 3.0 0.00 0.00 0.00 90 1049.1
20260503235854 58 75 1.0 3.0 0.00 0.00 0.00 90 1049.2
20260503235751 58 75 1.0 3.0 0.00 0.00 0.00 90 1049.2
20260503235740 58 75 0.0 3.0 0.00 0.00 0.00 90 1049.1
20260503235731 58 75 0.0 3.0 0.00 0.00 0.00 90 1049.2
20260503235727 58 75 0.0 3.0 0.00 0.00 0.00 90 1049.2
20260503235348 58 75 0.0 2.0 0.00 0.00 0.00 90 1049.2
20260503235324 58 76 0.0 2.0 0.00 0.00 0.00 90 1049.2
20260503235314 58 75 0.0 2.0 0.00 0.00 0.00 90 1049.1
20260503235304 58 75 0.0 1.0 0.00 0.00 0.00 90 1049.2
20260503234946 58 75 0.0 0.0 0.00 0.00 0.00 90 1049.2
20260503234846 58 75 0.0 0.0 0.00 0.00 0.00 90 1049.2
20260503234744 58 75 0.0 1.0 0.00 0.00 0.00 90 1049.2
20260503234644 58 75 0.0 1.0 0.00 0.00 0.00 90 1049.2
20260503234601 58 76 0.0 1.0 0.00 0.00 0.00 90 1049.1
20260503234544 58 75 0.0 1.0 0.00 0.00 0.00 90 1049.1
20260503234517 58 76 0.0 1.0 0.00 0.00 0.00 90 1049.2
20260503234505 58 75 0.0 1.0 0.00 0.00 0.00 90 1049.2
20260503234141 58 75 0.0 1.0 0.00 0.00 0.00 90 1049.3
20260503234101 58 75 0.0 1.0 0.00 0.00 0.00 90 1049.3
20260503234040 58 75 0.0 1.0 0.00 0.00 0.00 90 1049.3
20260503233940 58 75 0.0 1.0 0.00 0.00 0.00 90 1049.3
20260503233841 58 75 0.0 1.0 0.00 0.00 0.00 90 1049.3
20260503233832 58 75 0.0 1.0 0.00 0.00 0.00 90 1049.3
20260503233820 58 75 0.0 1.0 0.00 0.00 0.00 90 1049.3
20260503233538 58 75 0.0 1.0 0.00 0.00 0.00 90 1049.2
20260503233438 58 75 0.0 1.0 0.00 0.00 0.00 90 1049.3
20260503233409 58 75 0.0 1.0 0.00 0.00 0.00 90 1049.2
20260503233402 58 75 0.0 1.0 0.00 0.00 0.00 90 1049.2
20260503233101 58 75 0.0 1.0 0.00 0.00 0.00 90 1049.3
20260503233038 58 75 0.0 1.0 0.00 0.00 0.00 90 1049.2
20260503232938 58 75 0.0 1.0 0.00 0.00 0.00 90 1049.2
20260503232910 58 75 0.0 2.0 0.00 0.00 0.00 90 1049.2
20260503232858 58 75 0.0 2.0 0.00 0.00 0.00 90 1049.2
20260503232847 58 75 1.0 2.0 0.00 0.00 0.00 90 1049.2
20260503232621 58 75 1.0 2.0 0.00 0.00 0.00 90 1049.2
20260503232611 58 75 1.0 2.0 0.00 0.00 0.00 90 1049.2
20260503232234 58 75 1.0 2.0 0.00 0.00 0.00 90 1049.2
20260503232134 58 75 1.0 2.0 0.00 0.00 0.00 90 1049.2
20260503232101 58 75 1.0 2.0 0.00 0.00 0.00 90 1049.2
20260503232034 58 75 1.0 2.0 0.00 0.00 0.00 90 1049.3
20260503231934 58 75 1.0 2.0 0.00 0.00 0.00 90 1049.3
20260503231903 58 75 1.0 3.0 0.00 0.00 0.00 90 1049.3
20260503231855 58 75 1.0 3.0 0.00 0.00 0.00 90 1049.3
20260503231601 58 75 1.0 3.0 0.00 0.00 0.00 90 1049.3
20260503231531 58 76 1.0 3.0 0.00 0.00 0.00 90 1049.3
20260503231432 58 75 1.0 3.0 0.00 0.00 0.00 90 1049.3
20260503231329 58 75 1.0 3.0 0.00 0.00 0.00 90 1049.3
20260503231230 58 75 1.0 3.0 0.00 0.00 0.00 90 1049.3
20260503231101 58 75 1.0 3.0 0.00 0.00 0.00 90 1049.4
20260503231027 58 76 0.0 3.0 0.00 0.00 0.00 90 1049.3
20260503230922 58 76 0.0 3.0 0.00 0.00 0.00 90 1049.3
20260503230822 58 75 0.0 2.0 0.00 0.00 0.00 90 1049.3
20260503230722 58 75 0.0 2.0 0.00 0.00 0.00 90 1049.3
20260503230601 58 75 0.0 1.0 0.00 0.00 0.00 90 1049.3
20260503230519 58 75 0.0 1.0 0.00 0.00 0.00 90 1049.3
20260503230419 58 75 0.0 1.0 0.00 0.00 0.00 90 1049.4
20260503230318 58 75 0.0 1.0 0.00 0.00 0.00 90 1049.3
20260503230254 58 75 0.0 1.0 0.00 0.00 0.00 90 1049.3
20260503230233 58 76 0.0 2.0 0.00 0.00 0.00 90 1049.3
20260503225910 58 75 0.0 2.0 0.00 0.00 0.00 89 1049.3
20260503225810 58 75 1.0 2.0 0.00 0.00 0.00 89 1049.3
20260503225710 58 75 1.0 2.0 0.00 0.00 0.00 89 1049.3
20260503225645 58 76 1.0 2.0 0.00 0.00 0.00 89 1049.2
20260503225637 58 75 1.0 2.0 0.00 0.00 0.00 89 1049.2
20260503225631 58 75 1.0 2.0 0.00 0.00 0.00 89 1049.2
20260503225616 58 74 1.0 2.0 0.00 0.00 0.00 89 1049.3
20260503225604 58 75 1.0 3.0 0.00 0.00 0.00 89 1049.3
20260503225103 58 75 1.0 3.0 0.00 0.00 0.00 89 1049.3
20260503225037 58 75 1.0 3.0 0.00 0.00 0.00 89 1049.3
20260503225025 58 75 1.0 3.0 0.00 0.00 0.00 89 1049.3
20260503224705 58 75 1.0 3.0 0.00 0.00 0.00 89 1049.3
20260503224604 58 75 1.0 3.0 0.00 0.00 0.00 89 1049.4
20260503224507 58 75 1.0 3.0 0.00 0.00 0.00 89 1049.3
20260503224403 58 76 1.0 3.0 0.00 0.00 0.00 89 1049.4
20260503224304 58 75 1.0 3.0 0.00 0.00 0.00 89 1049.3
20260503224205 58 75 0.0 3.0 0.00 0.00 0.00 89 1049.4
20260503224103 58 75 0.0 3.0 0.00 0.00 0.00 89 1049.4
20260503224006 58 75 0.0 3.0 0.00 0.00 0.00 89 1049.4
20260503223903 58 75 0.0 3.0 0.00 0.00 0.00 89 1049.4
20260503223843 58 75 0.0 3.0 0.00 0.00 0.00 89 1049.4
20260503223835 57 75 0.0 3.0 0.00 0.00 0.00 89 1049.5
20260503223604 57 75 0.0 3.0 0.00 0.00 0.00 89 1049.4
20260503223505 57 75 0.0 3.0 0.00 0.00 0.00 89 1049.4
20260503223405 57 75 0.0 3.0 0.00 0.00 0.00 89 1049.4
20260503223305 57 75 0.0 3.0 0.00 0.00 0.00 89 1049.4
20260503223204 57 75 0.0 3.0 0.00 0.00 0.00 89 1049.3
20260503223104 57 73 0.0 2.0 0.00 0.00 0.00 89 1049.4
20260503223006 57 74 0.0 1.0 0.00 0.00 0.00 89 1049.3
20260503222904 57 74 0.0 1.0 0.00 0.00 0.00 89 1049.3
20260503222804 57 74 0.0 1.0 0.00 0.00 0.00 89 1049.3
20260503222705 57 74 0.0 1.0 0.00 0.00 0.00 89 1049.3
20260503222604 57 74 0.0 0.0 0.00 0.00 0.00 89 1049.3
20260503222506 57 74 0.0 0.0 0.00 0.00 0.00 88 1049.3
20260503222437 57 74 0.0 0.0 0.00 0.00 0.00 88 1049.3
20260503222428 57 74 0.0 0.0 0.00 0.00 0.00 88 1049.3
20260503222123 57 74 0.0 0.0 0.00 0.00 0.00 88 1049.3
20260503222101 57 74 0.0 0.0 0.00 0.00 0.00 88 1049.3
20260503222001 57 75 0.0 0.0 0.00 0.00 0.00 88 1049.2
20260503221900 57 74 0.0 0.0 0.00 0.00 0.00 88 1049.2
20260503221801 57 74 0.0 0.0 0.00 0.00 0.00 88 1049.2
20260503221659 57 74 0.0 0.0 0.00 0.00 0.00 88 1049.2
20260503221608 57 74 0.0 0.0 0.00 0.00 0.00 88 1049.3
20260503221600 57 74 0.0 0.0 0.00 0.00 0.00 88 1049.3
20260503221501 57 74 0.0 0.0 0.00 0.00 0.00 88 1049.2
20260503221403 57 74 0.0 0.0 0.00 0.00 0.00 88 1049.2
20260503221300 57 73 0.0 1.0 0.00 0.00 0.00 88 1049.2
20260503221200 57 74 0.0 1.0 0.00 0.00 0.00 88 1049.2
20260503221111 57 74 0.0 2.0 0.00 0.00 0.00 88 1049.2
20260503221102 57 74 0.0 2.0 0.00 0.00 0.00 88 1049.2
20260503221000 57 74 0.0 2.0 0.00 0.00 0.00 88 1049.2
20260503220858 57 74 1.0 3.0 0.00 0.00 0.00 88 1049.2
20260503220759 57 73 1.0 3.0 0.00 0.00 0.00 88 1049.2
20260503220658 57 74 1.0 3.0 0.00 0.00 0.00 88 1049.3
20260503220606 57 73 1.0 3.0 0.00 0.00 0.00 88 1049.3
20260503220557 57 73 1.0 3.0 0.00 0.00 0.00 88 1049.3
20260503220458 57 74 1.0 3.0 0.00 0.00 0.00 88 1049.2
20260503220358 57 73 2.0 3.0 0.00 0.00 0.00 88 1049.3
20260503220258 57 73 2.0 3.0 0.00 0.00 0.00 88 1049.3
20260503220247 57 73 1.0 3.0 0.00 0.00 0.00 87 1049.3
20260503220238 57 74 1.0 3.0 0.00 0.00 0.00 87 1049.4
20260503220234 57 74 1.0 3.0 0.00 0.00 0.00 87 1049.4
20260503220224 58 73 1.0 3.0 0.00 0.00 0.00 87 1049.4
20260503220215 58 74 1.0 3.0 0.00 0.00 0.00 87 1049.4
20260503220202 58 74 1.0 3.0 0.00 0.00 0.00 87 1049.4
20260503220152 58 74 1.0 3.0 0.00 0.00 0.00 87 1049.4
20260503215424 58 74 0.0 1.0 0.00 0.00 0.00 87 1049.3
20260503215416 58 74 0.0 1.0 0.00 0.00 0.00 87 1049.2
20260503215106 58 73 0.0 1.0 0.00 0.00 0.00 87 1049.1
20260503215058 58 73 0.0 1.0 0.00 0.00 0.00 87 1049.1
20260503214950 58 74 0.0 2.0 0.00 0.00 0.00 87 1049.1
20260503214921 58 74 1.0 2.0 0.00 0.00 0.00 87 1049.1
20260503214914 58 73 1.0 2.0 0.00 0.00 0.00 87 1049.1
20260503214859 58 73 1.0 2.0 0.00 0.00 0.00 87 1049.2
20260503214631 58 74 1.0 2.0 0.00 0.00 0.00 87 1049.2
20260503214615 58 74 1.0 2.0 0.00 0.00 0.00 87 1049.2
20260503214339 58 74 1.0 3.0 0.00 0.00 0.00 87 1049.2
20260503214322 58 74 1.0 3.0 0.00 0.00 0.00 87 1049.2
20260503214042 58 74 1.0 3.0 0.00 0.00 0.00 87 1049.2
20260503213937 58 74 1.0 3.0 0.00 0.00 0.00 87 1049.3
20260503213837 58 74 1.0 3.0 0.00 0.00 0.00 87 1049.2
20260503213739 58 73 1.0 3.0 0.00 0.00 0.00 87 1049.2
20260503213650 58 73 1.0 3.0 0.00 0.00 0.00 87 1049.2
20260503213639 58 74 1.0 4.0 0.00 0.00 0.00 87 1049.2
20260503213635 58 75 1.0 4.0 0.00 0.00 0.00 87 1049.2
20260503213618 58 73 1.0 4.0 0.00 0.00 0.00 87 1049.2
20260503213610 58 74 1.0 4.0 0.00 0.00 0.00 87 1049.2
20260503213338 58 74 1.0 4.0 0.00 0.00 0.00 87 1049.2
20260503213115 58 74 1.0 4.0 0.00 0.00 0.00 87 1049.2
20260503213058 58 74 1.0 4.0 0.00 0.00 0.00 87 1049.2
20260503212740 58 73 1.0 4.0 0.00 0.00 0.00 87 1049.2
20260503212729 58 74 1.0 4.0 0.00 0.00 0.00 87 1049.3
20260503212719 58 74 1.0 3.0 0.00 0.00 0.00 87 1049.3
20260503212715 58 74 1.0 2.0 0.00 0.00 0.00 87 1049.3
20260503212344 58 74 1.0 2.0 0.00 0.00 0.00 87 1049.3
20260503212336 58 74 1.0 2.0 0.00 0.00 0.00 87 1049.3
20260503212324 58 74 1.0 2.0 0.00 0.00 0.00 86 1049.3
20260503212031 58 73 1.0 2.0 0.00 0.00 0.00 86 1049.3
20260503211959 58 74 1.0 3.0 0.00 0.00 0.00 86 1049.3
20260503211951 58 74 1.0 4.0 0.00 0.00 0.00 86 1049.3
20260503211628 58 74 1.0 4.0 0.00 0.00 0.00 87 1049.3
20260503211601 58 73 1.0 4.0 0.00 0.00 0.00 87 1049.3
20260503211529 58 74 1.0 4.0 0.00 0.00 0.00 87 1049.3
20260503211429 58 74 1.0 4.0 0.00 0.00 0.00 87 1049.3
20260503211327 58 74 1.0 4.0 0.00 0.00 0.00 87 1049.2
20260503211223 58 74 1.0 4.0 0.00 0.00 0.00 86 1049.2
20260503211101 58 74 1.0 4.0 0.00 0.00 0.00 86 1049.2
20260503211030 58 74 1.0 4.0 0.00 0.00 0.00 86 1049.2
20260503210923 58 74 1.0 4.0 0.00 0.00 0.00 86 1049.2
20260503210823 58 76 1.0 4.0 0.00 0.00 0.00 86 1049.2
20260503210726 58 76 2.0 4.0 0.00 0.00 0.00 86 1049.2
20260503210645 58 76 2.0 4.0 0.00 0.00 0.00 86 1049.2
20260503210634 58 77 2.0 4.0 0.00 0.00 0.00 86 1049.2
20260503210630 58 76 2.0 4.0 0.00 0.00 0.00 86 1049.2
20260503210612 58 76 2.0 4.0 0.00 0.00 0.00 86 1049.3
20260503210349 58 76 1.0 4.0 0.00 0.00 0.00 86 1049.5
20260503210114 58 76 1.0 4.0 0.00 0.00 0.00 86 1049.5
20260503210109 58 77 1.0 4.0 0.00 0.00 0.00 86 1049.5
20260503210045 58 77 1.0 4.0 0.00 0.00 0.00 86 1049.5
20260503205719 58 77 1.0 3.0 0.00 0.00 0.00 86 1049.5
20260503205618 58 77 1.0 2.0 0.00 0.00 0.00 86 1049.5
20260503205557 58 77 1.0 2.0 0.00 0.00 0.00 86 1049.5
20260503205517 58 77 1.0 3.0 0.00 0.00 0.00 86 1049.4
20260503205417 58 77 1.0 3.0 0.00 0.00 0.00 86 1049.5
20260503205320 58 77 1.0 3.0 0.00 0.00 0.00 86 1049.5
20260503205218 58 77 1.0 3.0 0.00 0.00 0.00 86 1049.4
20260503205119 58 77 1.0 3.0 0.00 0.00 0.00 85 1049.4
20260503205057 58 77 1.0 3.0 0.00 0.00 0.00 85 1049.4
20260503205044 58 77 1.0 3.0 0.00 0.00 0.00 85 1049.5
20260503204707 58 77 1.0 3.0 0.00 0.00 0.00 85 1049.5
20260503204606 58 77 1.0 3.0 0.00 0.00 0.00 85 1049.5
20260503204554 58 77 1.0 3.0 0.00 0.00 0.00 85 1049.5
20260503204506 58 77 0.0 3.0 0.00 0.00 0.00 85 1049.5
20260503204404 58 77 0.0 2.0 0.00 0.00 0.00 85 1049.5
20260503204304 58 77 0.0 2.0 0.00 0.00 0.00 85 1049.5
20260503204204 58 77 0.0 2.0 0.00 0.00 0.00 85 1049.5
20260503204124 58 77 0.0 2.0 0.00 0.00 0.00 85 1049.5
20260503204116 58 77 0.0 2.0 0.00 0.00 0.00 85 1049.5
20260503204110 58 77 0.0 2.0 0.00 0.00 0.00 85 1049.4
20260503204055 58 77 0.0 2.0 0.00 0.00 0.00 85 1049.4
20260503204046 58 77 1.0 2.0 0.00 0.00 0.00 85 1049.5
20260503203554 58 77 1.0 2.0 0.00 0.00 0.00 85 1049.5
20260503203535 58 77 1.0 2.0 0.00 0.00 0.00 85 1049.6
20260503203525 58 77 1.0 2.0 0.00 0.00 0.00 85 1049.5
20260503203204 58 77 1.0 2.0 0.00 0.00 0.00 84 1049.5
20260503203104 58 77 1.0 2.0 0.00 0.00 0.00 84 1049.5
20260503203054 58 77 1.0 2.0 0.00 0.00 0.00 84 1049.5
20260503203007 58 77 1.0 2.0 0.00 0.00 0.00 84 1049.6
20260503202903 58 77 1.0 2.0 0.00 0.00 0.00 84 1049.6
20260503202759 58 77 1.0 2.0 0.00 0.00 0.00 84 1049.5
20260503202734 58 77 1.0 3.0 0.00 0.00 0.00 84 1049.6
20260503202721 58 77 1.0 3.0 0.00 0.00 0.00 84 1049.6
20260503202433 58 77 2.0 3.0 0.00 0.00 0.00 84 1049.6
20260503202426 58 77 2.0 3.0 0.00 0.00 0.00 84 1049.6
20260503202413 58 77 2.0 3.0 0.00 0.00 0.00 84 1049.6
20260503202359 58 77 1.0 3.0 0.00 0.00 0.00 84 1049.6
20260503202349 58 77 1.0 3.0 0.00 0.00 0.00 84 1049.6
20260503202120 58 77 1.0 3.0 0.00 0.00 0.00 84 1049.7
20260503201618 58 77 1.0 2.0 0.00 0.00 0.00 84 1049.6
20260503201607 58 77 1.0 2.0 0.00 0.00 0.00 84 1049.6
20260503201334 58 77 1.0 2.0 0.00 0.00 0.00 84 1049.6
20260503201319 58 77 1.0 2.0 0.00 0.00 0.00 84 1049.6
20260503201039 58 77 1.0 2.0 0.00 0.00 0.00 83 1049.6
20260503200936 58 77 1.0 2.0 0.00 0.00 0.00 83 1049.6
20260503200837 58 77 1.0 2.0 0.00 0.00 0.00 83 1049.6
20260503200737 58 77 1.0 2.0 0.00 0.00 0.00 83 1049.7
20260503200640 58 77 1.0 2.0 0.00 0.00 0.00 83 1049.7
20260503200536 58 77 1.0 2.0 0.00 0.00 0.00 83 1049.7
20260503200435 59 77 1.0 2.0 0.00 0.00 0.00 83 1049.7
20260503200335 59 77 1.0 2.0 0.00 0.00 0.00 83 1049.6
20260503200232 59 77 1.0 2.0 0.00 0.00 0.00 83 1049.7
20260503200154 59 77 1.0 3.0 0.00 0.00 0.00 83 1049.6
20260503200139 59 77 1.0 3.0 0.00 0.00 0.00 83 1049.6
20260503200128 59 77 1.0 3.0 0.00 0.00 0.00 83 1049.6
20260503200120 59 77 1.0 3.0 0.00 0.00 0.00 83 1049.6
20260503200112 59 77 1.0 3.0 0.00 0.00 0.00 83 1049.6
20260503200058 59 77 1.0 3.0 0.00 0.00 0.00 83 1049.6
20260503195612 59 77 1.0 3.0 0.00 0.00 0.00 82 1049.7
20260503195602 59 77 1.0 3.0 0.00 0.00 0.00 82 1049.6
20260503195331 59 77 1.0 3.0 0.00 0.00 0.00 82 1049.7
20260503195103 59 77 1.0 3.0 0.00 0.00 0.00 82 1049.7
20260503195052 59 77 1.0 3.0 0.00 0.00 0.00 82 1049.7
20260503194726 59 77 0.0 3.0 0.00 0.00 0.00 82 1049.6
20260503194630 59 77 0.0 2.0 0.00 0.00 0.00 82 1049.7
20260503194606 59 77 0.0 2.0 0.00 0.00 0.00 82 1049.7
20260503194557 59 77 0.0 0.0 0.00 0.00 0.00 82 1049.6
20260503194544 59 77 0.0 0.0 0.00 0.00 0.00 82 1049.6
20260503194312 59 77 0.0 0.0 0.00 0.00 0.00 82 1049.6
20260503194303 59 77 0.0 0.0 0.00 0.00 0.00 81 1049.6
20260503194244 59 77 0.0 0.0 0.00 0.00 0.00 81 1049.6
20260503194009 59 78 0.0 1.0 0.00 0.00 0.00 81 1049.5
20260503194001 59 77 0.0 1.0 0.00 0.00 0.00 81 1049.5
20260503193952 59 77 0.0 1.0 0.00 0.00 0.00 81 1049.5
20260503193416 59 77 0.0 2.0 0.00 0.00 0.00 81 1049.5
20260503193315 59 77 0.0 2.0 0.00 0.00 0.00 81 1049.5
20260503193245 59 77 0.0 2.0 0.00 0.00 0.00 81 1049.5
20260503193238 59 77 0.0 2.0 0.00 0.00 0.00 81 1049.5
20260503193227 59 77 0.0 2.0 0.00 0.00 0.00 81 1049.5
20260503192940 59 77 0.0 2.0 0.00 0.00 0.00 81 1049.5
20260503192931 59 77 0.0 2.0 0.00 0.00 0.00 81 1049.5
20260503192609 59 77 0.0 2.0 0.00 0.00 0.00 81 1049.5
20260503192546 59 77 0.0 1.0 0.00 0.00 0.00 81 1049.4
20260503192509 59 77 0.0 1.0 0.00 0.00 0.00 81 1049.4
20260503192406 59 77 0.0 1.0 0.00 0.00 0.00 81 1049.4
20260503192308 59 77 0.0 1.0 0.00 0.00 0.00 81 1049.4
20260503192205 59 77 0.0 1.0 0.00 0.00 0.00 81 1049.4
20260503192105 59 77 0.0 1.0 0.00 0.00 0.00 81 1049.4
20260503192040 59 77 0.0 1.0 0.00 0.00 0.00 81 1049.4
20260503192002 59 77 0.0 1.0 0.00 0.00 0.00 81 1049.4
20260503191900 59 77 0.0 1.0 0.00 0.00 0.00 81 1049.4
20260503191801 59 77 0.0 1.0 0.00 0.00 0.00 81 1049.3
20260503191659 59 77 0.0 3.0 0.00 0.00 0.00 80 1049.3
20260503191537 59 77 0.0 3.0 0.00 0.00 0.00 80 1049.3
20260503191459 59 77 0.0 3.0 0.00 0.00 0.00 80 1049.3
20260503191354 59 77 1.0 3.0 0.00 0.00 0.00 80 1049.3
20260503191249 59 77 1.0 3.0 0.00 0.00 0.00 80 1049.3
20260503191227 59 77 1.0 3.0 0.00 0.00 0.00 80 1049.3
20260503191210 59 77 1.0 3.0 0.00 0.00 0.00 80 1049.3
20260503190844 59 77 1.0 3.0 0.00 0.00 0.00 79 1049.2
20260503190740 59 77 1.0 3.0 0.00 0.00 0.00 79 1049.2
20260503190640 59 77 1.0 2.0 0.00 0.00 0.00 79 1049.2
20260503190539 59 77 1.0 2.0 0.00 0.00 0.00 79 1049.3
20260503190440 59 77 0.0 2.0 0.00 0.00 0.00 79 1049.2
20260503190340 59 77 1.0 2.0 0.00 0.00 0.00 80 1049.2
20260503190240 59 77 1.0 2.0 0.00 0.00 0.00 79 1049.2
20260503190138 59 77 1.0 2.0 0.00 0.00 0.00 79 1049.2
20260503190034 59 77 1.0 2.0 0.00 0.00 0.00 79 1049.2
20260503185936 59 77 1.0 2.0 0.00 0.00 0.00 79 1049.2
20260503185836 59 77 1.0 2.0 0.00 0.00 0.00 79 1049.2
20260503185735 59 77 1.0 3.0 0.00 0.00 0.00 79 1049.2
20260503185707 59 77 1.0 4.0 0.00 0.00 0.00 79 1049.2
20260503185652 59 77 1.0 4.0 0.00 0.00 0.00 79 1049.2
20260503185639 60 77 1.0 4.0 0.00 0.00 0.00 79 1049.2
20260503185625 60 77 2.0 4.0 0.00 0.00 0.00 79 1049.1
20260503185400 60 77 2.0 4.0 0.00 0.00 0.00 79 1049.1
20260503185345 60 77 2.0 4.0 0.00 0.00 0.00 78 1049.1
20260503185335 60 77 2.0 4.0 0.00 0.00 0.00 78 1049.1
20260503185323 60 77 2.0 4.0 0.00 0.00 0.00 78 1049.1
20260503185316 60 77 1.0 4.0 0.00 0.00 0.00 78 1049.1
20260503184828 60 77 2.0 4.0 0.00 0.00 0.00 78 1049.1
20260503184820 60 77 2.0 4.0 0.00 0.00 0.00 78 1049.1
20260503184807 60 77 2.0 4.0 0.00 0.00 0.00 78 1049.2
20260503184540 60 77 2.0 4.0 0.00 0.00 0.00 78 1049.1
20260503184257 60 77 2.0 5.0 0.00 0.00 0.00 78 1049.1
20260503184021 60 77 2.0 5.0 0.00 0.00 0.00 78 1049.1
20260503183751 60 77 2.0 5.0 0.00 0.00 0.00 78 1049.1
20260503183739 60 77 2.0 5.0 0.00 0.00 0.00 78 1049.1
20260503183424 60 77 2.0 5.0 0.00 0.00 0.00 78 1049.1
20260503183324 60 77 2.0 5.0 0.00 0.00 0.00 77 1049.1
20260503183303 60 77 2.0 5.0 0.00 0.00 0.00 77 1049.1
20260503183249 60 76 2.0 4.0 0.00 0.00 0.00 77 1049.1
20260503183022 60 75 2.0 5.0 0.00 0.00 0.00 77 1049.1
20260503182920 60 75 2.0 5.0 0.00 0.00 0.00 77 1049.1
20260503182820 60 74 2.0 5.0 0.00 0.00 0.00 77 1049.1
20260503182720 60 75 2.0 5.0 0.00 0.00 0.00 77 1049.1
20260503182620 60 75 2.0 5.0 0.00 0.00 0.00 77 1049.1
20260503182520 60 74 2.0 5.0 0.00 0.00 0.00 77 1049.1
20260503182418 60 74 2.0 5.0 0.00 0.00 0.00 77 1049.1
20260503182313 60 75 2.0 5.0 0.00 0.00 0.00 77 1049.1
20260503182214 60 75 2.0 5.0 0.00 0.00 0.00 77 1049.1
20260503182115 60 74 2.0 5.0 0.00 0.00 0.00 77 1049.1
20260503182014 60 75 2.0 4.0 0.00 0.00 0.00 77 1049.0
20260503181912 60 76 2.0 5.0 0.00 0.00 0.00 77 1049.0
20260503181806 60 75 3.0 8.0 0.00 0.00 0.00 78 1049.1
20260503181706 60 76 3.0 8.0 0.00 0.00 0.00 77 1049.1
20260503181606 60 75 3.0 8.0 0.00 0.00 0.00 77 1049.1
20260503181506 60 76 3.0 8.0 0.00 0.00 0.00 77 1049.1
20260503181406 60 76 3.0 8.0 0.00 0.00 0.00 77 1049.1
20260503181325 60 76 2.0 8.0 0.00 0.00 0.00 77 1049.1
20260503181318 60 77 3.0 8.0 0.00 0.00 0.00 77 1049.1
20260503181301 60 76 3.0 8.0 0.00 0.00 0.00 77 1049.1
20260503181005 60 76 3.0 8.0 0.00 0.00 0.00 78 1049.1
20260503180901 60 77 2.0 8.0 0.00 0.00 0.00 78 1049.1
20260503180823 60 96 2.0 4.0 0.00 0.00 0.00 78 1049.1
20260503180813 60 97 2.0 4.0 0.00 0.00 0.00 78 1049.1
20260503180801 60 96 2.0 4.0 0.00 0.00 0.00 78 1049.2
20260503180749 60 97 2.0 4.0 0.00 0.00 0.00 79 1049.2
20260503180524 60 97 1.0 4.0 0.00 0.00 0.00 79 1049.2
20260503180201 60 99 1.0 4.0 0.00 0.00 0.00 79 1049.2
20260503180032 60 98 1.0 4.0 0.00 0.00 0.00 79 1049.2
20260503180005 60 97 1.0 3.0 0.00 0.00 0.00 79 1049.2
20260503175901 60 97 2.0 6.0 0.00 0.00 0.00 79 1049.3
20260503175802 60 98 2.0 7.0 0.00 0.00 0.00 79 1049.3
20260503175701 60 97 2.0 7.0 0.00 0.00 0.00 79 1049.3
20260503175605 60 97 3.0 7.0 0.00 0.00 0.00 79 1049.3
20260503175549 60 97 3.0 7.0 0.00 0.00 0.00 79 1049.2
20260503175534 60 97 3.0 7.0 0.00 0.00 0.00 79 1049.2
20260503175307 60 97 3.0 7.0 0.00 0.00 0.00 79 1049.1
20260503175253 60 97 3.0 7.0 0.00 0.00 0.00 79 1049.1
20260503175004 60 97 3.0 7.0 0.00 0.00 0.00 79 1049.1
20260503174931 60 97 3.0 7.0 0.00 0.00 0.00 79 1049.1
20260503174924 60 98 3.0 7.0 0.00 0.00 0.00 79 1049.2
20260503174602 60 103 3.0 7.0 0.00 0.00 0.00 79 1049.2
20260503174504 60 103 3.0 7.0 0.00 0.00 0.00 79 1049.1
20260503174400 60 103 3.0 7.0 0.00 0.00 0.00 79 1049.2
20260503174300 60 104 3.0 7.0 0.00 0.00 0.00 79 1049.1
20260503174200 60 103 3.0 7.0 0.00 0.00 0.00 79 1049.2
20260503174059 61 103 3.0 7.0 0.00 0.00 0.00 80 1049.2
20260503174033 60 104 3.0 7.0 0.00 0.00 0.00 80 1049.2
20260503173958 60 103 3.0 7.0 0.00 0.00 0.00 80 1049.2
20260503173858 60 104 3.0 7.0 0.00 0.00 0.00 79 1049.2
20260503173817 60 103 3.0 7.0 0.00 0.00 0.00 79 1049.2
20260503173807 61 112 3.0 7.0 0.00 0.00 0.00 80 1049.2
20260503173755 60 112 3.0 7.0 0.00 0.00 0.00 80 1049.2
20260503173745 60 112 4.0 7.0 0.00 0.00 0.00 80 1049.2
20260503173517 60 112 3.0 7.0 0.00 0.00 0.00 80 1049.2
20260503173152 60 112 3.0 7.0 0.00 0.00 0.00 80 1049.2
20260503173029 60 112 3.0 7.0 0.00 0.00 0.00 80 1049.2
20260503172952 61 112 3.0 7.0 0.00 0.00 0.00 80 1049.2
20260503172850 60 112 3.0 7.0 0.00 0.00 0.00 80 1049.2
20260503172748 61 112 2.0 7.0 0.00 0.00 0.00 80 1049.2
20260503172648 61 115 2.0 6.0 0.00 0.00 0.00 80 1049.2
20260503172628 61 114 2.0 6.0 0.00 0.00 0.00 80 1049.2
20260503172621 61 116 2.0 7.0 0.00 0.00 0.00 80 1049.2
20260503172610 61 114 2.0 8.0 0.00 0.00 0.00 80 1049.2
20260503172248 61 114 3.0 8.0 0.00 0.00 0.00 80 1049.0
20260503172141 61 114 3.0 8.0 0.00 0.00 0.00 80 1049.0
20260503172029 61 114 3.0 8.0 0.00 0.00 0.00 80 1048.8
20260503171943 61 114 3.0 8.0 0.00 0.00 0.00 80 1048.7
20260503171842 61 114 3.0 8.0 0.00 0.00 0.00 80 1048.7
20260503171800 61 114 4.0 8.0 0.00 0.00 0.00 80 1048.7
20260503171751 61 114 4.0 10.0 0.00 0.00 0.00 80 1048.7
20260503171733 61 114 4.0 10.0 0.00 0.00 0.00 80 1048.7
20260503171716 61 113 4.0 10.0 0.00 0.00 0.00 80 1048.7
20260503171132 61 114 4.0 10.0 0.00 0.00 0.00 80 1048.7
20260503171029 61 125 4.0 10.0 0.00 0.00 0.00 80 1048.7
20260503170932 61 125 5.0 10.0 0.00 0.00 0.00 80 1048.7
20260503170832 61 127 5.0 10.0 0.00 0.00 0.00 79 1048.7
20260503170808 61 117 5.0 10.0 0.00 0.00 0.00 80 1048.7
20260503170759 61 154 5.0 9.0 0.00 0.00 0.00 80 1048.7
20260503170746 61 102 5.0 10.0 0.00 0.00 0.00 80 1048.7
20260503170501 61 102 6.0 10.0 0.00 0.00 0.00 80 1048.7
20260503170454 61 102 6.0 10.0 0.00 0.00 0.00 79 1048.7
20260503170129 61 109 6.0 11.0 0.00 0.00 0.00 79 1048.7
20260503150931 63 118 4.0 7.0 0.00 0.00 0.00 74 1048.7
20260503150832 63 118 3.0 8.0 0.00 0.00 0.00 74 1048.7
20260503150805 63 126 3.0 8.0 0.00 0.00 0.00 74 1048.7
20260503150755 63 127 4.0 8.0 0.00 0.00 0.00 74 1048.7
20260503150735 63 126 4.0 8.0 0.00 0.00 0.00 74 1048.6
20260503150722 63 126 4.0 8.0 0.00 0.00 0.00 73 1048.7
20260503150713 63 125 4.0 8.0 0.00 0.00 0.00 73 1048.7
20260503150451 63 129 4.0 8.0 0.00 0.00 0.00 73 1048.6
20260503150437 63 133 4.0 9.0 0.00 0.00 0.00 73 1048.7
20260503150212 63 141 4.0 9.0 0.00 0.00 0.00 73 1048.6
20260503131406 65 105 4.0 10.0 0.00 0.00 0.00 72 1050.2
20260503131330 65 102 4.0 10.0 0.00 0.00 0.00 72 1050.2
20260503131323 65 156 4.0 10.0 0.00 0.00 0.00 72 1050.2
20260503131004 65 143 4.0 10.0 0.00 0.00 0.00 72 1050.2
20260503130900 65 143 4.0 10.0 0.00 0.00 0.00 72 1050.2
20260503130838 65 104 4.0 10.0 0.00 0.00 0.00 72 1050.2
20260503130830 65 161 4.0 9.0 0.00 0.00 0.00 72 1050.1
20260503130815 64 164 4.0 9.0 0.00 0.00 0.00 72 1050.2
20260503130748 64 168 4.0 9.0 0.00 0.00 0.00 72 1050.3
20260503130525 64 170 4.0 9.0 0.00 0.00 0.00 71 1050.3
20260503130513 64 112 3.0 9.0 0.00 0.00 0.00 71 1050.3
20260503130505 64 109 3.0 9.0 0.00 0.00 0.00 71 1050.4
20260503130456 64 177 3.0 9.0 0.00 0.00 0.00 72 1050.3
20260503130447 64 179 3.0 9.0 0.00 0.00 0.00 72 1050.4
20260503130220 64 179 3.0 9.0 0.00 0.00 0.00 72 1050.4